Regional Weather Roundup
Issued by NWS

Home | Current Version | Previous Version | Text Only | Print | Product List | Glossary Off
Versions: 1 2 3 4 5 6 7 8 9 10 11 12 13 14 15 16 17 18 19 20 21 22 23 24 25 26 27 28 29 30 31 32 33 34 35 36 37 38 39 40 41 42 43 44 45 46 47 48 49 50

000
ASUS43 KDMX 312307
RWRIA

WEATHER ROUNDUP FOR IOWA
NATIONAL WEATHER SERVICE DES MOINES IA
600 PM CDT MON AUG 31 2015

NOTE: "FAIR" INDICATES FEW OR NO CLOUDS BELOW 12,000 FEET WITH NO
SIGNIFICANT WEATHER AND/OR OBSTRUCTIONS TO VISIBILITY.

* - THESE STATIONS ARE NOT NWS STATIONS...THUS NOT UNDER NWS
QUALITY CONTROL.  THEY ALSO DO NOT REPORT WEATHER SUCH
AS PRECIPITATION OR FOG.

IAZ001>003-012>014-020>022-031>034-043>046-010000-
   NORTHWEST IOWA

CITY           SKY/WX    TMP DP  RH WIND       PRES   REMARKS
CARROLL *      SUNNY     81  72  74 S9G15     29.93R HX  84
CHEROKEE *     MOSUNNY   81  70  69 S10       29.92R HX  84
DENISON *      SUNNY     81  70  69 S7G14     29.91S HX  84
LE MARS *      SUNNY     81  70  69 S13G18    29.90S HX  84
ORANGE CITY *  SUNNY     81  72  74 S12       29.91R HX  84
SHELDON *      SUNNY     81  70  69 S8        29.90R HX  84
SIOUX CITY     SUNNY     83  69  62 S12       29.89S HX  86
SPENCER        SUNNY     81  66  60 S10       29.92R HX  83
STORM LAKE *   MOSUNNY   79  70  73 S9        29.94S HX  81
$$

IAZ055>058-069>071-079>083-090>094-010000-
   SOUTHWEST IOWA

CITY           SKY/WX    TMP DP  RH WIND       PRES   REMARKS
ATLANTIC *     SUNNY     82  68  61 S9        29.93S HX  85
AUDUBON *      SUNNY     82  70  65 S6        29.95S HX  86
CLARINDA *     SUNNY     84  72  65 S7        29.94F HX  89
COUNCIL BLFS * SUNNY     84  68  58 S9        29.92S HX  87
CRESTON *      MOSUNNY   82  72  69 S9        29.96S HX  87
LAMONI         SUNNY     85  70  60 S10       29.95S HX  89
RED OAK *      SUNNY     84  70  61 S6        29.92F HX  88
SHENANDOAH *   SUNNY     86  70  58 S7        29.92F HX  90
$$

IAZ047>049-059>061-072>074-084-010000-
   CENTRAL IOWA

CITY           SKY/WX    TMP DP  RH WIND       PRES   REMARKS
AMES           MOSUNNY   84  73  69 SW8       29.93S HX  90
ANKENY *       PTSUNNY   84  72  65 S7G14     29.93R HX  89
CHARITON *     SUNNY     84  70  61 S8        29.95S HX  88
DES MOINES     MOSUNNY   86  70  58 S12       29.93R HX  90
GRINNELL*      SUNNY     84  70  61 S6        29.96S HX  88
KNOXVILLE *    SUNNY     84  72  65 S8        29.93S HX  89
MARSHALLTOWN   MOSUNNY   84  72  67 S9        29.93F HX  89
PELLA *        SUNNY     88  73  62 S7        29.95S HX  96
PERRY *          N/A     82  73  74 S6        29.93S HX  88
$$

IAZ004>006-015-016-023>025-035-036-010000-
   NORTH CENTRAL IOWA

CITY           SKY/WX    TMP DP  RH WIND       PRES   REMARKS
ALGONA *       SUNNY     82  72  69 S14       29.93R HX  87
CLARION *      SUNNY     82  72  69 S8G15     29.93S HX  87
ESTHERVILLE    SUNNY     80  68  66 S12       29.92R HX  83
FORT DODGE *   SUNNY     82  68  61 S14       29.94R HX  85
MASON CITY     SUNNY     83  72  69 S10       29.95R HX  88
FOREST CITY *  MOSUNNY   81  70  69 S8        29.93S HX  84
IOWA FALLS *     N/A     84  73  70 S7        29.95S HX  91
$$

IAZ007>011-017>019-026>030-037>042-050>054-066-010000-
   NORTHEAST IOWA

CITY           SKY/WX    TMP DP  RH WIND       PRES   REMARKS
CEDAR RAPIDS   SUNNY     84  75  74 S6        29.96S HX  92
CHARLES CITY * MOSUNNY   82  75  78 S10       29.95F HX  89
CLINTON *      SUNNY     84  73  70 S7        30.01S HX  91
DECORAH *      SUNNY     81  72  74 VRB7      29.97S HX  84
DUBUQUE        SUNNY     81  72  74 S8        30.00F HX  85
MONTICELLO *   SUNNY     84  73  70 SE6       29.98S HX  91
OELWEIN *      MOSUNNY   82  75  78 S7        29.97F HX  89
WATERLOO       MOSUNNY   84  72  67 S9        29.94S HX  89
$$

IAZ064-065-067-068-078-010000-
   EAST CENTRAL IOWA

CITY           SKY/WX    TMP DP  RH WIND       PRES   REMARKS
DAVENPORT      MOSUNNY   85  72  65 S8        29.99S HX  91
IOWA CITY      SUNNY     85  73  67 SE7       29.97S HX  91
MT. PLEASANT * SUNNY     88  70  55 SE6       29.96F HX  92
MUSCATINE *    SUNNY     88  70  55 S10       29.96S HX  92
QUAD CITIES    SUNNY     86  72  62 S7        29.98R HX  92
$$

IAZ062-063-075>077-085>089-095>099-010000-
   SOUTHEAST IOWA

CITY           SKY/WX    TMP DP  RH WIND       PRES   REMARKS
BURLINGTON     SUNNY     87  72  60 SE7       29.97S HX  93
FAIRFIELD *    MOSUNNY   88  70  55 S9        29.96S HX  92
FORT MADISON * SUNNY     86  73  66 S3        29.98S HX  93
KEOKUK *       MOSUNNY   88  72  58 S6        29.96S HX  94
OSKALOOSA *      N/A     88  70  55 SW7       29.96S HX  92
CENTERVILLE *  SUNNY     84  73  70 S7        29.98S HX  91
OTTUMWA        SUNNY     86  73  65 S8        29.94R HX  93
WASHINGTON *     N/A    N/A N/A N/A MISG        N/A
$$

ABBREVIATIONS USED IN REMARKS
   TC - TEMPERATURES IN CELSIUS
  WCI - WIND CHILL INDEX
   HX - HEAT INDEX
  VSB - VISIBILITY
$$




USA.gov is the U.S. government's official web portal to all federal, state and local government web resources and services.